Location: Schommer Observatory
(40.5200°N, 74.4500°W)
Time: 12:30:24
(UTC-05:00)

Tiangong 2 - Pass Details

Date: 11 November 2017
Orbit: 386 x 391 km, 42.8° (Epoch: 19 November)

Event Time Altitude Azimuth Distance (km) Brightness Sun altitude
Rises 17:36:50 0° 286° (WNW) 2,276 6.1 -10.4°
Reaches altitude 10° 17:38:56 10° 283° (WNW) 1,418 5.0 -10.8°
Maximum altitude 17:42:06 63° 201° (SSW) 435 1.4 -11.4°
Enters shadow 17:44:53 13° 120° (ESE) 1,266 3.3 -11.9°
